Time,TemperatureF,DewpointF,PressureIn,WindDirection,WindDirectionDegrees,WindSpeedMPH,WindSpeedGustMPH,Humidity,HourlyPrecipIn,Conditions,Clouds,dailyrainin,SolarRadiationWatts/m^2,SoftwareType,DateUTC
2013-03-03 00:01:00,52.0,12.0,-100.00,WSW,244,7.0,14.0,20,0.00,,,0.00,0.000000,,2013-03-03 07:01:00,
2013-03-03 00:32:00,52.0,12.0,-100.00,WSW,244,7.0,14.0,20,0.00,,,0.00,0.000000,,2013-03-03 07:32:00,
2013-03-03 00:42:00,52.0,12.0,-100.00,WSW,244,7.0,14.0,20,0.00,,,0.00,0.000000,,2013-03-03 07:42:00,
2013-03-03 00:52:00,52.0,12.0,-100.00,WSW,244,7.0,14.0,20,0.00,,,0.00,0.000000,,2013-03-03 07:52:00,
2013-03-03 01:01:00,52.0,10.0,-100.00,WSW,242,8.0,15.0,18,0.00,,,0.00,0.000000,,2013-03-03 08:01:00,
2013-03-03 01:32:00,52.0,10.0,-100.00,WSW,242,8.0,15.0,18,0.00,,,0.00,0.000000,,2013-03-03 08:32:00,
2013-03-03 01:42:00,52.0,10.0,-100.00,WSW,242,8.0,15.0,18,0.00,,,0.00,0.000000,,2013-03-03 08:42:00,
2013-03-03 01:54:00,52.0,10.0,-100.00,WSW,242,8.0,15.0,18,0.00,,,0.00,0.000000,,2013-03-03 08:54:00,
2013-03-03 02:01:00,51.0,8.0,-100.00,West,260,7.0,15.0,17,0.00,,,-99.99,0.000000,,2013-03-03 09:01:00,
2013-03-03 02:32:00,51.0,8.0,-100.00,West,260,7.0,15.0,17,0.00,,,-99.99,0.000000,,2013-03-03 09:32:00,
2013-03-03 02:42:00,51.0,8.0,-100.00,West,260,7.0,15.0,17,0.00,,,-99.99,0.000000,,2013-03-03 09:42:00,
2013-03-03 02:52:00,51.0,8.0,-100.00,West,260,7.0,15.0,17,0.00,,,-99.99,0.000000,,2013-03-03 09:52:00,
2013-03-03 03:01:00,50.0,7.0,-100.00,WSW,255,6.0,15.0,17,0.00,,,0.00,0.000000,,2013-03-03 10:01:00,
2013-03-03 03:32:00,50.0,7.0,-100.00,WSW,255,6.0,15.0,17,0.00,,,0.00,0.000000,,2013-03-03 10:32:00,
2013-03-03 03:42:00,50.0,7.0,-100.00,WSW,255,6.0,15.0,17,0.00,,,0.00,0.000000,,2013-03-03 10:42:00,
2013-03-03 03:52:00,50.0,7.0,-100.00,WSW,255,6.0,15.0,17,0.00,,,0.00,0.000000,,2013-03-03 10:52:00,
2013-03-03 04:01:00,48.0,8.0,-100.00,West,264,5.0,11.0,19,0.00,,,0.00,0.000000,,2013-03-03 11:01:00,
2013-03-03 04:32:00,48.0,8.0,-100.00,West,264,5.0,11.0,19,0.00,,,0.00,0.000000,,2013-03-03 11:32:00,
2013-03-03 04:42:00,48.0,8.0,-100.00,West,264,5.0,11.0,19,0.00,,,0.00,0.000000,,2013-03-03 11:42:00,
2013-03-03 04:52:00,48.0,8.0,-100.00,West,264,5.0,11.0,19,0.00,,,0.00,0.000000,,2013-03-03 11:52:00,
2013-03-03 05:01:00,47.0,7.0,-100.00,WSW,253,4.0,10.0,19,0.00,,,0.00,0.000000,,2013-03-03 12:01:00,
2013-03-03 05:32:00,47.0,7.0,-100.00,WSW,253,4.0,10.0,19,0.00,,,0.00,0.000000,,2013-03-03 12:32:00,
2013-03-03 05:43:00,47.0,7.0,-100.00,WSW,253,4.0,10.0,19,0.00,,,0.00,0.000000,,2013-03-03 12:43:00,
2013-03-03 05:53:00,47.0,7.0,-100.00,WSW,253,4.0,10.0,19,0.00,,,0.00,0.000000,,2013-03-03 12:53:00,
2013-03-03 06:01:00,46.0,6.0,-100.00,WNW,301,5.0,8.0,19,0.00,,,0.00,0.000000,,2013-03-03 13:01:00,
2013-03-03 06:32:00,46.0,6.0,-100.00,WNW,301,5.0,8.0,19,0.00,,,0.00,0.000000,,2013-03-03 13:32:00,
2013-03-03 06:42:00,46.0,6.0,-100.00,WNW,301,5.0,8.0,19,0.00,,,0.00,0.000000,,2013-03-03 13:42:00,
2013-03-03 06:52:00,46.0,6.0,-100.00,WNW,301,5.0,8.0,19,0.00,,,0.00,0.000000,,2013-03-03 13:52:00,
2013-03-03 07:01:00,44.0,7.0,-100.00,NW,315,5.0,7.0,21,0.00,,,0.00,5.000000,,2013-03-03 14:01:00,
2013-03-03 07:32:00,44.0,7.0,-100.00,NW,315,5.0,7.0,21,0.00,,,0.00,5.000000,,2013-03-03 14:32:00,
2013-03-03 07:42:00,44.0,7.0,-100.00,NW,315,5.0,7.0,21,0.00,,,0.00,5.000000,,2013-03-03 14:42:00,
2013-03-03 07:52:00,44.0,7.0,-100.00,NW,315,5.0,7.0,21,0.00,,,0.00,5.000000,,2013-03-03 14:52:00,
2013-03-03 08:01:00,58.0,12.0,-100.00,SW,222,3.0,6.0,16,0.00,,,0.00,177.000000,,2013-03-03 15:01:00,
2013-03-03 08:32:00,58.0,12.0,-100.00,SW,222,3.0,6.0,16,0.00,,,0.00,177.000000,,2013-03-03 15:32:00,
2013-03-03 08:42:00,58.0,12.0,-100.00,SW,222,3.0,6.0,16,0.00,,,0.00,177.000000,,2013-03-03 15:42:00,
2013-03-03 08:52:00,58.0,12.0,-100.00,SW,222,3.0,6.0,16,0.00,,,0.00,177.000000,,2013-03-03 15:52:00,
2013-03-03 09:01:00,61.0,8.0,-100.00,SW,234,6.0,9.0,12,0.00,,,0.00,438.000000,,2013-03-03 16:01:00,
2013-03-03 09:32:00,61.0,8.0,-100.00,SW,234,6.0,9.0,12,0.00,,,0.00,438.000000,,2013-03-03 16:32:00,
2013-03-03 09:42:00,61.0,8.0,-100.00,SW,234,6.0,9.0,12,0.00,,,0.00,438.000000,,2013-03-03 16:42:00,
2013-03-03 09:52:00,61.0,8.0,-100.00,SW,234,6.0,9.0,12,0.00,,,0.00,438.000000,,2013-03-03 16:52:00,
2013-03-03 10:01:00,60.0,7.0,-100.00,South,183,10.0,19.0,12,0.00,,,0.00,645.000000,,2013-03-03 17:01:00,
2013-03-03 10:32:00,60.0,7.0,-100.00,South,183,10.0,19.0,12,0.00,,,0.00,645.000000,,2013-03-03 17:32:00,
2013-03-03 10:42:00,60.0,7.0,-100.00,South,183,10.0,19.0,12,0.00,,,0.00,645.000000,,2013-03-03 17:42:00,
2013-03-03 10:52:00,60.0,7.0,-100.00,South,183,10.0,19.0,12,0.00,,,0.00,645.000000,,2013-03-03 17:52:00,
2013-03-03 11:01:00,60.0,7.0,-100.00,SSW,196,10.0,25.0,12,0.00,,,0.00,628.000000,,2013-03-03 18:01:00,
2013-03-03 11:22:00,60.0,7.0,-100.00,SSW,196,10.0,25.0,12,0.00,,,0.00,628.000000,,2013-03-03 18:22:00,
2013-03-03 11:32:00,60.0,7.0,-100.00,SSW,196,10.0,25.0,12,0.00,,,0.00,628.000000,,2013-03-03 18:32:00,
2013-03-03 11:42:00,60.0,7.0,-100.00,SSW,196,10.0,25.0,12,0.00,,,0.00,628.000000,,2013-03-03 18:42:00,
2013-03-03 11:52:00,60.0,7.0,-100.00,SSW,196,10.0,25.0,12,0.00,,,0.00,628.000000,,2013-03-03 18:52:00,
2013-03-03 12:01:00,66.0,10.0,-100.00,WSW,242,9.0,24.0,11,0.00,,,0.00,783.000000,,2013-03-03 19:01:00,
2013-03-03 12:22:00,66.0,10.0,-100.00,WSW,242,9.0,24.0,11,0.00,,,0.00,783.000000,,2013-03-03 19:22:00,
2013-03-03 12:32:00,66.0,10.0,-100.00,WSW,242,9.0,24.0,11,0.00,,,0.00,783.000000,,2013-03-03 19:32:00,
2013-03-03 12:42:00,66.0,10.0,-100.00,WSW,242,9.0,24.0,11,0.00,,,0.00,783.000000,,2013-03-03 19:42:00,
2013-03-03 12:52:00,66.0,10.0,-100.00,WSW,242,9.0,24.0,11,0.00,,,0.00,783.000000,,2013-03-03 19:52:00,
2013-03-03 13:01:00,65.0,9.0,-100.00,WSW,248,10.0,25.0,11,0.00,,,0.00,845.000000,,2013-03-03 20:01:00,
2013-03-03 13:32:00,65.0,9.0,-100.00,WSW,248,10.0,25.0,11,0.00,,,0.00,845.000000,,2013-03-03 20:32:00,
2013-03-03 13:42:00,65.0,9.0,-100.00,WSW,248,10.0,25.0,11,0.00,,,0.00,845.000000,,2013-03-03 20:42:00,
2013-03-03 13:53:00,65.0,9.0,-100.00,WSW,248,10.0,25.0,11,0.00,,,0.00,845.000000,,2013-03-03 20:53:00,
2013-03-03 14:01:00,67.0,1.0,-100.00,West,265,15.0,36.0,7,0.00,,,0.00,793.000000,,2013-03-03 21:01:00,
2013-03-03 14:32:00,67.0,1.0,-100.00,West,265,15.0,36.0,7,0.00,,,0.00,793.000000,,2013-03-03 21:32:00,
2013-03-03 14:42:00,67.0,1.0,-100.00,West,265,15.0,36.0,7,0.00,,,0.00,793.000000,,2013-03-03 21:42:00,
2013-03-03 14:52:00,67.0,1.0,-100.00,West,265,15.0,36.0,7,0.00,,,0.00,793.000000,,2013-03-03 21:52:00,
2013-03-03 15:01:00,67.0,1.0,-100.00,West,264,19.0,38.0,7,0.00,,,0.00,666.000000,,2013-03-03 22:01:00,
2013-03-03 15:32:00,67.0,1.0,-100.00,West,264,19.0,38.0,7,0.00,,,0.00,666.000000,,2013-03-03 22:32:00,
2013-03-03 15:42:00,67.0,1.0,-100.00,West,264,19.0,38.0,7,0.00,,,0.00,666.000000,,2013-03-03 22:42:00,
2013-03-03 15:52:00,67.0,1.0,-100.00,West,264,19.0,38.0,7,0.00,,,0.00,666.000000,,2013-03-03 22:52:00,
2013-03-03 16:01:00,67.0,-2.0,-100.00,West,265,21.0,36.0,6,0.00,,,0.00,416.000000,,2013-03-03 23:01:00,
2013-03-03 16:32:00,67.0,-2.0,-100.00,West,265,21.0,36.0,6,0.00,,,0.00,416.000000,,2013-03-03 23:32:00,
2013-03-03 16:42:00,67.0,-2.0,-100.00,West,265,21.0,36.0,6,0.00,,,0.00,416.000000,,2013-03-03 23:42:00,
2013-03-03 16:52:00,67.0,-2.0,-100.00,West,265,21.0,36.0,6,0.00,,,0.00,416.000000,,2013-03-03 23:52:00,
2013-03-03 17:01:00,64.0,-8.0,-100.00,West,273,20.0,30.0,5,0.00,,,0.00,162.000000,,2013-03-04 00:01:00,
2013-03-03 17:32:00,64.0,-8.0,-100.00,West,273,20.0,30.0,5,0.00,,,0.00,162.000000,,2013-03-04 00:32:00,
2013-03-03 17:42:00,64.0,-8.0,-100.00,West,273,20.0,30.0,5,0.00,,,0.00,162.000000,,2013-03-04 00:42:00,
2013-03-03 17:52:00,64.0,-8.0,-100.00,West,273,20.0,30.0,5,0.00,,,0.00,162.000000,,2013-03-04 00:52:00,
2013-03-03 18:01:00,62.0,-3.0,-100.00,West,281,14.0,30.0,7,0.00,,,0.00,21.000000,,2013-03-04 01:01:00,
2013-03-03 18:32:00,62.0,-3.0,-100.00,West,281,14.0,30.0,7,0.00,,,0.00,21.000000,,2013-03-04 01:32:00,
2013-03-03 18:42:00,62.0,-3.0,-100.00,West,281,14.0,30.0,7,0.00,,,0.00,21.000000,,2013-03-04 01:42:00,
2013-03-03 18:52:00,62.0,-3.0,-100.00,West,281,14.0,30.0,7,0.00,,,0.00,21.000000,,2013-03-04 01:52:00,
2013-03-03 19:01:00,60.0,1.0,-100.00,West,276,14.0,32.0,9,0.00,,,0.00,1.000000,,2013-03-04 02:01:00,
2013-03-03 19:32:00,60.0,1.0,-100.00,West,276,14.0,32.0,9,0.00,,,0.00,1.000000,,2013-03-04 02:32:00,
2013-03-03 19:42:00,60.0,1.0,-100.00,West,276,14.0,32.0,9,0.00,,,0.00,1.000000,,2013-03-04 02:42:00,
2013-03-03 19:52:00,60.0,1.0,-100.00,West,276,14.0,32.0,9,0.00,,,0.00,1.000000,,2013-03-04 02:52:00,
2013-03-03 20:01:00,60.0,5.0,-100.00,West,274,18.0,35.0,11,0.00,,,0.00,0.000000,,2013-03-04 03:01:00,
2013-03-03 20:22:00,60.0,5.0,-100.00,West,274,18.0,35.0,11,0.00,,,0.00,0.000000,,2013-03-04 03:22:00,
2013-03-03 20:32:00,60.0,5.0,-100.00,West,274,18.0,35.0,11,0.00,,,0.00,0.000000,,2013-03-04 03:32:00,
2013-03-03 20:42:00,60.0,5.0,-100.00,West,274,18.0,35.0,11,0.00,,,0.00,0.000000,,2013-03-04 03:42:00,
2013-03-03 20:52:00,60.0,5.0,-100.00,West,274,18.0,35.0,11,0.00,,,0.00,0.000000,,2013-03-04 03:52:00,
2013-03-03 21:01:00,58.0,6.0,-100.00,West,270,12.0,27.0,12,0.00,,,0.00,0.000000,,2013-03-04 04:01:00,
2013-03-03 21:32:00,58.0,6.0,-100.00,West,270,12.0,27.0,12,0.00,,,0.00,0.000000,,2013-03-04 04:32:00,
2013-03-03 21:42:00,58.0,6.0,-100.00,West,270,12.0,27.0,12,0.00,,,0.00,0.000000,,2013-03-04 04:42:00,
2013-03-03 21:52:00,58.0,6.0,-100.00,West,270,12.0,27.0,12,0.00,,,0.00,0.000000,,2013-03-04 04:52:00,
2013-03-03 22:01:00,58.0,9.0,-100.00,West,265,14.0,31.0,14,0.00,,,0.00,0.000000,,2013-03-04 05:01:00,
2013-03-03 22:22:00,58.0,9.0,-100.00,West,265,14.0,31.0,14,0.00,,,0.00,0.000000,,2013-03-04 05:22:00,
2013-03-03 22:32:00,58.0,9.0,-100.00,West,265,14.0,31.0,14,0.00,,,0.00,0.000000,,2013-03-04 05:32:00,
2013-03-03 22:43:00,58.0,9.0,-100.00,West,265,14.0,31.0,14,0.00,,,0.00,0.000000,,2013-03-04 05:43:00,
2013-03-03 22:52:00,58.0,9.0,-100.00,West,265,14.0,31.0,14,0.00,,,0.00,0.000000,,2013-03-04 05:52:00,
2013-03-03 23:01:00,57.0,8.0,-100.00,West,270,18.0,35.0,14,0.00,,,0.00,0.000000,,2013-03-04 06:01:00,
2013-03-03 23:32:00,57.0,8.0,-100.00,West,270,18.0,35.0,14,0.00,,,0.00,0.000000,,2013-03-04 06:32:00,
2013-03-03 23:42:00,57.0,8.0,-100.00,West,270,18.0,35.0,14,0.00,,,0.00,0.000000,,2013-03-04 06:42:00,
2013-03-03 23:52:00,57.0,8.0,-100.00,West,270,18.0,35.0,14,0.00,,,0.00,0.000000,,2013-03-04 06:52:00,